| time (UTC) | temp F | wind direction | speed MPH | gust MPH | rain 1hr in | rain 24hr in | rain mn in | humidity % | barometer mb |
| 20260507003028 | 59 | 146 | 6.0 | 15.0 | 0.00 | 0.10 | 0.10 | 77 | 1015.0 |
| 20260507000029 | 59 | 144 | 7.0 | 14.0 | 0.00 | 0.10 | 0.10 | 76 | 1014.7 |
| 20260506234530 | 59 | 223 | 5.0 | 11.0 | 0.00 | 0.10 | 0.10 | 76 | 1014.6 |
| 20260506233030 | 59 | 175 | 6.0 | 14.0 | 0.00 | 0.10 | 0.10 | 77 | 1014.6 |
| 20260506231528 | 59 | 211 | 5.0 | 13.0 | 0.00 | 0.10 | 0.10 | 77 | 1014.3 |
| 20260506230032 | 60 | 153 | 8.0 | 16.0 | 0.00 | 0.10 | 0.10 | 75 | 1013.9 |
| 20260506224535 | 59 | 111 | 3.0 | 12.0 | 0.00 | 0.10 | 0.10 | 75 | 1014.5 |
| 20260506223027 | 59 | 165 | 6.0 | 12.0 | 0.00 | 0.10 | 0.10 | 75 | 1014.3 |
| 20260506221529 | 59 | 162 | 6.0 | 12.0 | 0.00 | 0.10 | 0.10 | 75 | 1013.9 |
| 20260506220037 | 59 | 188 | 6.0 | 13.0 | 0.00 | 0.10 | 0.10 | 74 | 1013.9 |
| 20260506214528 | 60 | 144 | 6.0 | 13.0 | 0.00 | 0.10 | 0.10 | 74 | 1013.9 |
| 20260506213029 | 60 | 172 | 7.0 | 12.0 | 0.00 | 0.10 | 0.10 | 73 | 1013.6 |
| 20260506211534 | 61 | 88 | 4.0 | 10.0 | 0.00 | 0.10 | 0.10 | 72 | 1014.0 |
| 20260506210033 | 61 | 152 | 4.0 | 9.0 | 0.00 | 0.10 | 0.10 | 71 | 1013.9 |
| 20260506204556 | 61 | 157 | 3.0 | 12.0 | 0.00 | 0.10 | 0.10 | 74 | 1014.2 |
| 20260506203026 | 60 | 161 | 4.0 | 12.0 | 0.00 | 0.10 | 0.10 | 74 | 1014.1 |
| 20260506201536 | 59 | 141 | 6.0 | 10.0 | 0.00 | 0.10 | 0.10 | 75 | 1014.9 |
| 20260506200030 | 59 | 131 | 3.0 | 12.0 | 0.00 | 0.10 | 0.10 | 77 | 1014.6 |
| 20260506194528 | 58 | 70 | 3.0 | 9.0 | 0.00 | 0.10 | 0.10 | 79 | 1014.6 |
| 20260506193028 | 57 | 80 | 2.0 | 6.0 | 0.00 | 0.10 | 0.10 | 79 | 1014.9 |
| 20260506191528 | 57 | 89 | 3.0 | 8.0 | 0.00 | 0.10 | 0.10 | 78 | 1015.2 |
| 20260506190031 | 57 | 142 | 3.0 | 9.0 | 0.00 | 0.10 | 0.10 | 79 | 1015.0 |
| 20260506184527 | 57 | 130 | 5.0 | 12.0 | 0.00 | 0.10 | 0.10 | 79 | 1014.7 |
| 20260506183025 | 56 | 139 | 5.0 | 10.0 | 0.00 | 0.10 | 0.10 | 80 | 1013.8 |
| 20260506181528 | 56 | 150 | 8.0 | 16.0 | 0.00 | 0.10 | 0.10 | 81 | 1013.3 |
| 20260506180033 | 55 | 178 | 6.0 | 14.0 | 0.00 | 0.10 | 0.10 | 82 | 1013.3 |
| 20260506174533 | 55 | 136 | 5.0 | 13.0 | 0.00 | 0.10 | 0.10 | 82 | 1014.0 |
| 20260506173028 | 55 | 153 | 5.0 | 15.0 | 0.00 | 0.10 | 0.10 | 82 | 1014.6 |
| 20260506171539 | 55 | 170 | 4.0 | 13.0 | 0.00 | 0.10 | 0.10 | 82 | 1014.8 |
| 20260506170027 | 54 | 161 | 6.0 | 15.0 | 0.00 | 0.10 | 0.10 | 82 | 1014.3 |
| 20260506164528 | 54 | 159 | 6.0 | 15.0 | 0.01 | 0.10 | 0.10 | 82 | 1014.8 |
| 20260506163028 | 55 | 119 | 5.0 | 10.0 | 0.10 | 0.10 | 0.10 | 82 | 1015.0 |
| 20260506161532 | 55 | 0 | 2.0 | 9.0 | 0.10 | 0.10 | 0.10 | 83 | 1015.1 |
| 20260506160032 | 54 | 280 | 2.0 | 12.0 | 0.10 | 0.10 | 0.10 | 82 | 1014.6 |
| 20260506154533 | 54 | 167 | 8.0 | 15.0 | 0.09 | 0.09 | 0.09 | 79 | 1014.0 |
| 20260506153027 | 54 | 0 | 1.0 | 9.0 | 0.00 | 0.00 | 0.00 | 77 | 1016.5 |
| 20260506151533 | 54 | 73 | 3.0 | 10.0 | 0.00 | 0.00 | 0.00 | 77 | 1015.3 |
| 20260506150028 | 54 | 232 | 2.0 | 14.0 | 0.00 | 0.00 | 0.00 | 77 | 1015.0 |
| 20260506144539 | 54 | 96 | 3.0 | 10.0 | 0.00 | 0.00 | 0.00 | 77 | 1015.1 |
| 20260506143028 | 54 | 146 | 6.0 | 11.0 | 0.00 | 0.00 | 0.00 | 77 | 1014.7 |
| 20260506141530 | 54 | 117 | 5.0 | 12.0 | 0.00 | 0.00 | 0.00 | 76 | 1014.4 |
| 20260506140033 | 54 | 146 | 5.0 | 11.0 | 0.00 | 0.00 | 0.00 | 76 | 1014.0 |
| 20260506134528 | 54 | 89 | 4.0 | 15.0 | 0.00 | 0.00 | 0.00 | 76 | 1014.0 |
| 20260506133031 | 54 | 142 | 4.0 | 11.0 | 0.00 | 0.00 | 0.00 | 77 | 1013.8 |
| 20260506131534 | 54 | 120 | 3.0 | 10.0 | 0.00 | 0.00 | 0.00 | 78 | 1013.6 |
| 20260506130030 | 54 | 111 | 7.0 | 14.0 | 0.00 | 0.00 | 0.00 | 77 | 1013.5 |
| 20260506124533 | 54 | 82 | 5.0 | 13.0 | 0.00 | 0.00 | 0.00 | 76 | 1013.3 |
| 20260506123029 | 54 | 167 | 4.0 | 14.0 | 0.00 | 0.00 | 0.00 | 76 | 1013.2 |
| 20260506121527 | 55 | 166 | 6.0 | 14.0 | 0.00 | 0.00 | 0.00 | 75 | 1013.0 |
| 20260506120029 | 55 | 172 | 6.0 | 14.0 | 0.00 | 0.00 | 0.00 | 74 | 1013.1 |
| 20260506114536 | 55 | 171 | 6.0 | 13.0 | 0.00 | 0.00 | 0.00 | 73 | 1012.5 |
| 20260506113028 | 55 | 122 | 3.0 | 14.0 | 0.00 | 0.00 | 0.00 | 73 | 1012.3 |
| 20260506111529 | 55 | 60 | 7.0 | 20.0 | 0.00 | 0.00 | 0.00 | 72 | 1012.0 |
| 20260506110033 | 56 | 135 | 5.0 | 13.0 | 0.00 | 0.00 | 0.00 | 71 | 1011.9 |
| 20260506104526 | 57 | 98 | 5.0 | 11.0 | 0.00 | 0.00 | 0.00 | 71 | 1011.6 |
| 20260506103029 | 57 | 148 | 4.0 | 12.0 | 0.00 | 0.00 | 0.00 | 70 | 1011.1 |
| 20260506101526 | 57 | 142 | 5.0 | 11.0 | 0.00 | 0.00 | 0.00 | 70 | 1010.9 |
| 20260506100029 | 57 | 128 | 5.0 | 13.0 | 0.00 | 0.00 | 0.00 | 70 | 1010.8 |
| 20260506094529 | 57 | 149 | 5.0 | 10.0 | 0.00 | 0.00 | 0.00 | 70 | 1010.7 |
| 20260506093028 | 58 | 158 | 3.0 | 10.0 | 0.00 | 0.00 | 0.00 | 70 | 1010.6 |
| 20260506091526 | 58 | 159 | 4.0 | 9.0 | 0.00 | 0.00 | 0.00 | 70 | 1010.6 |
| 20260506090025 | 58 | 96 | 5.0 | 11.0 | 0.00 | 0.00 | 0.00 | 70 | 1010.2 |
| 20260506084527 | 58 | 155 | 3.0 | 9.0 | 0.00 | 0.00 | 0.00 | 71 | 1010.1 |
| 20260506083027 | 58 | 145 | 3.0 | 8.0 | 0.00 | 0.00 | 0.00 | 71 | 1010.0 |
| 20260506081528 | 58 | 180 | 3.0 | 9.0 | 0.00 | 0.00 | 0.00 | 71 | 1009.6 |
| 20260506073029 | 59 | 165 | 4.0 | 12.0 | 0.00 | 0.00 | 0.00 | 72 | 1009.8 |
| 20260506071528 | 59 | 155 | 7.0 | 12.0 | 0.00 | 0.00 | 0.00 | 72 | 1010.0 |
| 20260506061528 | 61 | 152 | 3.0 | 11.0 | 0.00 | 0.00 | 0.00 | 73 | 1009.6 |
| 20260506044537 | 65 | 165 | 4.0 | 11.0 | 0.00 | 0.00 | 0.00 | 72 | 1009.4 |
| 20260506043027 | 66 | 198 | 5.0 | 14.0 | 0.00 | 0.00 | 0.00 | 71 | 1009.3 |
| 20260506041528 | 67 | 113 | 6.0 | 13.0 | 0.00 | 0.00 | 0.00 | 71 | 1008.6 |
| 20260506040029 | 68 | 124 | 5.0 | 11.0 | 0.00 | 0.00 | 0.00 | 71 | 1008.8 |
| 20260506034528 | 69 | 136 | 3.0 | 14.0 | 0.00 | 0.00 | 0.00 | 71 | 1008.7 |
| 20260506033034 | 70 | 164 | 5.0 | 14.0 | 0.00 | 0.00 | 0.00 | 70 | 1008.4 |
| 20260506031535 | 70 | 140 | 4.0 | 11.0 | 0.00 | 0.00 | 0.00 | 69 | 1008.0 |
| 20260506030050 | 71 | 159 | 5.0 | 13.0 | 0.00 | 0.00 | 0.00 | 69 | 1007.8 |
| 20260506024531 | 73 | 112 | 7.0 | 13.0 | 0.00 | 0.00 | 0.00 | 68 | 1007.4 |
| 20260506023033 | 74 | 136 | 6.0 | 11.0 | 0.00 | 0.00 | 0.00 | 68 | 1007.0 |
| 20260506021528 | 75 | 105 | 2.0 | 7.0 | 0.00 | 0.00 | 0.00 | 67 | 1006.5 |
| 20260506020028 | 75 | 107 | 2.0 | 7.0 | 0.00 | 0.00 | 0.00 | 66 | 1006.5 |
| 20260506014528 | 75 | 118 | 3.0 | 10.0 | 0.00 | 0.00 | 0.00 | 65 | 1006.2 |
| 20260506013031 | 76 | 100 | 2.0 | 11.0 | 0.00 | 0.00 | 0.00 | 64 | 1005.9 |
| 20260506011536 | 76 | 138 | 2.0 | 12.0 | 0.00 | 0.00 | 0.00 | 63 | 1005.9 |
| 20260506010026 | 78 | 149 | 6.0 | 13.0 | 0.00 | 0.00 | 0.00 | 62 | 1005.5 |
| 20260506004543 | 80 | 134 | 4.0 | 9.0 | 0.00 | 0.00 | 0.00 | 61 | 1005.4 |